Regional Weather Roundup
Issued by NWS Grand Forks, ND

Home | Current Version | Previous Version | Graphics & Text | Print | Product List | Glossary On
Versions: 1 2 3 4 5 6 7 8 9 10 11 12 13 14 15 16 17 18 19 20 21 22 23 24 25 26 27 28 29 30 31 32 33 34 35 36 37 38 39 40 41 42 43 44 45 46 47 48 49 50
000
ASUS43 KFGF 290410
RWRFGF
PRAIRIE TO PINES  WEATHER ROUNDUP
NATIONAL WEATHER SERVICE EASTERN NORTH DAKOTA/GRAND FORKS ND
1000 PM CST SUN DEC 28 2014

 **SATELLITE DATA USED TO AUGMENT SKY COVER AT AUTOMATED STATIONS**
 *****  WEATHER ACROSS EASTERN NORTH DAKOTA  *****

CITY           SKY/WX    TMP DP  RH WIND       PRES   REMARKS
GRAND FORKS    CLEAR    -10 -15  78 NW3       30.49R
GRAND FRKS AFB CLEAR     -7 -12  81 NW5       30.49R WCI -19
GRAND FRKS NWS   N/A     -8 N/A N/A VRB2        N/A
DEVILS LAKE    PTCLDY    -9 -17  70 N6        30.42R WCI -23
FARGO          CLEAR     -3 -10  72 N12       30.47R WCI -21
WAHPETON ARPT  MOCLDY     0  -6  78 N14G20    30.44R WCI -19
$$

 ***** WEATHER ACROSS CENTRAL AND WESTERN NORTH DAKOTA  *****

CITY           SKY/WX    TMP DP  RH WIND       PRES   REMARKS
BISMARCK       CLOUDY     2  -4  76 NE9       30.41R WCI -13
MINOT          PTCLDY    -8 -14  74 NW7       30.44R WCI -23
JAMESTOWN      CLOUDY    -3  -8  79 N9        30.41R WCI -19
MINOT AFB      PTCLDY   -10 -14  82 NW8       30.46R WCI -27
GARRISON         N/A     -1  -5  82 NE8       30.40R WCI -15
WILLISTON      CLOUDY     1  -6  72 NE12      30.45R WCI -16
DICKINSON      LGT SNOW   6   1  80 NE10      30.29R WCI  -9
HETTINGER      LGT SNOW   8   3  80 NE14      30.26R WCI  -8
$$

 *****  OTHER AIRPORT OBSERVATIONS IN OUR AREA  *****

CITY           SKY/WX    TMP DP  RH WIND       PRES   REMARKS
WALHALLA         N/A     -9 -11  92 NW8       30.51R WCI -26
GRAFTON AIRPOR NOT AVBL
VALLEY CITY AR FAIR      -4  -8  84 N7        30.43R WCI -18
CANDO          FAIR      -9 -13  84 N8        30.45R WCI -26
CAVALIER APRT  FAIR      -6 -11  77 N15       30.51R WCI -27
GWINNER        MOCLDY     1  -4  78 NE12      30.43R WCI -15
SHEYENNE NWR     N/A     -3 -10  73 N7        29.95S WCI -17
ROLLA          FAIR     -11 -17  77 N15       30.41R WCI -34
 ***** THE ABOVE OBSERVATIONS ARE NON NWS ARE NOT QUALITY
       CONTROLLED AND MAY MIS-REPORT RAIN FOR SNOW...
$$

  *****  WEATHER ACROSS NORTHERN MINNESOTA  *****

CITY           SKY/WX    TMP DP  RH WIND       PRES   REMARKS
FLAG ISLAND    CLEAR    -11 -18  70 NW18      30.41R WCI -36
WARROAD        PTCLDY   -11 -17  77 NW6       30.43R WCI -25
ROSEAU         PTCLDY    -9 -17  70 NW5       30.44R WCI -21
HALLOCK        PTCLDY    -9 -15  77 N10       30.49R WCI -28
THF RVR FALLS  PTCLDY    -8  -9  92 N9        30.43R WCI -25
BAUDETTE       PTCLDY    -8 -14  74 NW8       30.39R WCI -24
WASKISH        CLEAR     -6  -9  84 NW8       30.38R WCI -21
CROOKSTON      CLEAR     -8 -13  77 N5        30.49R WCI -19
STEPHEN NDAWN    N/A    -11 -17  77 NW3         N/A
GREENBUSH NDAW   N/A     -9 -15  77 NW5         N/A  WCI -21
$$
  *****  WEATHER ACROSS CENTRAL AND WEST MINNESOTA  *****

CITY           SKY/WX    TMP DP  RH WIND       PRES   REMARKS
FOSSTON        CLEAR    -11 -15  84 NW6       30.40R WCI -25
BEMIDJI        CLEAR     -7 -11  83 NW5       30.36R WCI -19
PARK RAPIDS    CLEAR     -2  -8  76 NW7       30.34R WCI -15
ELBOW LAKE     FAIR       5  -1  76 N6        30.36R WCI  -5
WADENA         CLEAR      1  -4  78 N10       30.34R WCI -14
DETROIT LAKES  FAIR      -2  -6  84 NW9       30.38R WCI -18
MOORHEAD       CLEAR     -2  -6  84 N13       30.46R WCI -21
FERGUS FALLS   MOCLDY     1  -6  71 N8        30.43R WCI -12
MORRIS MN      MOCLDY     9   3  78 N8        30.35R WCI  -4
STAPLES        CLEAR      1  -4  78 N7        30.34R WCI -11
$$
  *****  WEATHER ELSEWHERE ACROSS MINNESOTA  *****

CITY           SKY/WX    TMP DP  RH WIND       PRES   REMARKS
DULUTH         CLEAR      2  -7  66 NW12      30.27R WCI -15
INTRNTL FALLS  CLEAR     -9 -14  78 W6        30.36R WCI -22
ELY            CLEAR     -6 -11  77 W5        30.29R WCI -17
CLOQUET        FAIR       1  -6  71 NW9       30.30R WCI -14
WHEATON        MOCLDY     1  -4  78 NW12G17   30.42R WCI -15
BRAINERD       CLEAR      4  -3  73 N9        30.34R WCI -10
HIBBING        CLEAR     -1 -10  65 NW13      30.31R WCI -19
ALEXANDRIA     PTCLDY     9   0  67 N12       30.33R WCI  -6
SAINT CLOUD    CLEAR     11   0  61 N6        30.34R WCI   1
MINNEAPOLIS    PTCLDY    12   1  61 N8        30.33R WCI   0
$$

  *****  WEATHER ACROSS SOUTH DAKOTA  *****

CITY           SKY/WX    TMP DP  RH WIND       PRES   REMARKS
SIOUX FALLS    LGT SNOW  17  13  84 NE14      30.26R FOG     WCI   3
BROOKINGS      NOT AVBL
WATERTOWN      CLOUDY     6   1  80 N8        30.30R WCI  -7
HURON          LGT SNOW  13   9  84 NE10      30.32R FOG     WCI   0
SISSETON         N/A      2  -3  80 N13       30.40R WCI -15
ABERDEEN       CLOUDY     5  -3  69 NE15      30.39R WCI -13
MITCHELL       LGT SNOW  19  16  88 NE12      30.29R FOG     WCI   7
PIERRE         LGT SNOW  11   7  84 NE21      30.26R FOG     WCI  -8
MOBRIDGE       CLOUDY     9   2  73 NE10      30.31R WCI  -5
RAPID CITY     LGT SNOW  15  11  83 NE10      30.13R FOG     WCI   2
$$

  *****  SOME WEATHER IN NEARBY STATES *****

CITY           SKY/WX    TMP DP  RH WIND       PRES   REMARKS
GLASGOW MT     CLOUDY     7  -3  64 NE10      30.43R WCI  -8
GREAT FALLS MT LGT SNOW   9   5  85 N17       30.34R FOG     WCI -10
CHEYENNE WY    MOCLDY    18   8  65 W9        29.89R WCI   7
SCOTTSBLUFF NE CLOUDY    16  11  80 W6        29.97R WCI   7
OMAHA NE       CLOUDY    25  22  88 N5        30.19F WCI  19
DES MOINES IA  CLOUDY    30  22  72 NE7       30.21R WCI  23
DAVENPORT IA   PTCLDY    24  17  74 NE3       30.24R
CHICAGO IL     PTCLDY    26  18  71 NW7       30.23R WCI  18
EAU CLAIRE WI  PTCLDY    -1  -6  79 N5        30.30R WCI -11
LA CROSSE WI   PTCLDY    19  13  77 CALM      30.31R
$$

  *****  SOME NATIONAL WEATHER *****

CITY           SKY/WX    TMP DP  RH WIND       PRES   REMARKS
LA GUARDIA NY  CLOUDY    43  30  60 NW14      30.05R
RALEIGH NC     FOG       55  54  96 SW3       30.08S VSB 1/8
ATLANTA GA     CLOUDY    59  56  89 N5        30.06S
NEW ORLEANS LA LGT RAIN  57  54  89 N5        30.13R FOG
OKLAHOMA CITY  PTCLDY    30  20  66 SE8       30.10R WCI  22
ALBUQUERQUE NM CLEAR     26  12  55 E3        30.07S
SALT LAKE CITY FLURRIES  28  26  92 E7        30.04F WCI  21
LOS ANGELES CA PTCLDY    54  43  66 SE5       30.19S
BOISE ID       FOG       30  29  96 NW5       30.09R VSB 1/2
SEATTLE WA     LGT RAIN  40  36  86 SE7       30.15S
$$

*** WEATHER ACROSS MANITOBA...SASKATCHEWAN AND ONTARIO ***
                ***ONTARIO***

CITY           SKY/WX    TMP DP  RH WIND       PRES   REMARKS
GERALDTON      CLEAR     -9 -17  70 W7        30.14R WCI -24
THUNDER BAY    NOT AVBL
SIOUX LOOKOUT  NOT AVBL
TORONTO        NOT AVBL
BIG TROUT LK   CLEAR    -20 -26  76 W12G18    30.13S WCI -42
PICKLE LAKE    NOT AVBL
DRYDEN         CLEAR    -17 -20  83 W9        30.30R WCI -36
KENORA         NOT AVBL
$$
                *** MANITOBA***

CITY           SKY/WX    TMP DP  RH WIND       PRES   REMARKS
BRANDON        CLEAR    -18 -24  76 NW9       30.50R WCI -38
DAUPHIN        CLEAR    -27 -33  75 W8        30.57R WCI -48
ISLAND LAKE    CLEAR    -20 -29  63 W10       30.34R WCI -41
PILOT MOUND      N/A    -15 -20  76 N6          N/A  WCI -29
THE PAS        CLEAR    -20 -27  69 NW10      30.59R WCI -41
THOMPSON       NOT AVBL
WINNIPEG       CLEAR    -18 -24  76 NW9       30.53R WCI -38
$$
                ***SASKATCHEWAN***

CITY           SKY/WX    TMP DP  RH WIND       PRES   REMARKS
ESTEVAN        CLEAR    -11 -17  77 N8        30.47R WCI -28
KINDERSLEY     MOCLDY   -15 -20  76 CALM      30.56R
LLOYDMINSTER   CLOUDY    -9 -15  77 NW8       30.59R WCI -26
PRINCE ALBERT  PTCLDY   -20 -26  76 W6        30.63R WCI -36
REGINA         CLEAR    -18 -24  76 N9        30.54R WCI -38
YORKTON        CLEAR    -18 -24  76 NW10      30.53R WCI -39
N. BATTLEFORD  CLOUDY   -13 -17  84 NW8       30.65R WCI -30
LA RONGE       NOT AVBL
SASKATOON      CLEAR    -20 -26  76 NW7       30.63R WCI -37
SWIFT CURRENT  PTCLDY    -9 -15  77 N7        30.47R WCI -24
$$
NOTE: THESE ARE AUTOMATED STATIONS WITH LIMITED QUALITY CONTROL
      "FAIR" INDICATES FEW OR NO CLOUDS BELOW 12,000 FEET WITH NO
      SIGNIFICANT WEATHER AND/OR OBSTRUCTIONS TO VISIBILITY.
      SKY/WX - SKY CONDITION AND SIGNIFICANT WEATHER.
      TMP - AIR TEMPERATURE.    DP   - DEWPOINT TEMPERATURE.
      RH  - RELATIVE HUMIDITY.  PRES - PRESSURE.
      HX  - HEAT INDEX.         WCI  - WIND CHILL INDEX.
$



USA.gov is the U.S. government's official web portal to all federal, state and local government web resources and services.